[[{"header":{"parameterUnit":"m.s-1","parameterCategory":1,"la1":30.2991,"la2":30.254,"lo1":-89.0895,"lo2":-89.0444,"dy":0.0017,"dx":0.0017,"nx":28,"ny":28,"refTime":"2024-07-02T03:00:00:Z","depth":0,"parameterNumber":2,"parameterNumberName":"U-component_of_WINDS"},"data":[0,0,0,0,0,0,0,0,0,0,0,0,0,0,0,0,0,0,0,0,0,0,0,0,0,0,0,0,0,0,0,0,0,0,0,0,0,0,0,0,0,0,0,0,0,0,0,0,0,0,0,0,0,0,0,0,0,0,2.8284,2.8285,0,2.8398,2.84,2.8401,2.8378,2.8376,2.8373,2.8371,2.849,2.8495,2.85,0,0,0,0,0,0,0,0,0,0,0,0,0,2.8048,2.8052,2.8284,2.8285,2.8287,2.8398,2.84,2.8401,2.8378,2.8375,2.8373,2.8371,2.8489,2.8495,2.8501,0,0,0,0,0,0,0,0,0,0,0,0,0,2.8155,2.8054,2.8284,2.8289,2.829,2.8398,2.84,2.8402,2.8379,2.8375,2.8372,2.8369,2.8487,2.8494,2.8502,2.8612,0,0,2.8525,2.8528,0,0,0,0,0,0,0,0,2.8149,2.8164,2.8287,2.8289,2.829,2.837,2.836,2.8472,2.8379,2.8345,2.8371,2.8368,2.8453,2.8463,2.8492,2.8617,2.8622,2.8526,2.853,2.8534,2.8536,0,0,0,0,0,0,0,2.8142,2.8159,2.8329,2.8288,2.8291,2.8286,2.8298,2.8381,2.8415,2.8348,2.8346,2.836,2.8454,2.8484,2.8494,2.8624,2.8525,2.8532,2.8537,2.854,2.8846,2.8849,0,0,0,0,0,0,2.8132,2.8153,2.8326,2.8333,2.8211,2.8293,2.8306,2.8348,2.8414,2.8421,2.8363,2.8359,2.8473,2.8485,2.8498,2.863,2.8534,2.8541,2.8545,2.8842,2.8847,2.885,0,0,0,0,0,0,2.8127,2.8148,2.8321,2.8242,2.8264,2.83,2.8348,2.8352,2.8382,2.8426,2.8432,2.8388,2.8471,2.8488,2.8583,2.8634,2.8544,2.8551,2.8838,2.8844,2.8848,2.8896,0,0,0,0,0,0,2.8121,2.8146,2.8188,2.8243,2.8268,2.8404,2.8351,2.8356,2.8396,2.8391,2.8451,2.8457,2.847,2.8572,2.8591,2.8643,2.8557,2.8834,2.8841,2.8847,2.889,2.8903,2.8913,0,0,0,0,0,2.8112,2.8197,2.819,2.8211,2.8321,2.8406,2.8421,2.8432,2.84,2.8442,2.847,2.8456,2.8626,2.8582,2.8603,2.8659,2.883,2.8839,2.8846,2.8885,2.89,2.8913,0,0,0,0,0,0,2.8147,2.8205,2.8197,2.8303,2.835,2.8402,2.8456,2.8448,2.8506,2.8499,2.8512,2.8526,2.8623,2.8651,2.8601,2.8769,2.8724,2.8736,2.8746,2.8761,2.8772,2.8762,2.8564,0,0,0,0,0,2.8167,2.8231,2.8278,2.8367,2.8391,2.842,2.8457,2.8462,2.8512,2.8532,2.8567,2.8616,2.868,2.8723,2.8785,2.8895,2.8907,2.8944,2.8955,2.8965,2.8974,2.9034,2.905,2.8876,2.8876,2.8876,0,0,2.8208,2.8248,2.8288,2.8375,2.8412,2.8478,2.8436,2.8508,2.8558,2.8543,2.8635,2.8663,2.8719,2.8822,2.8869,2.8848,2.9026,2.8975,2.8982,2.8986,2.9044,2.906,2.9075,2.8882,2.8881,2.888,0,0,2.8317,2.8355,2.8432,2.847,2.8527,2.8545,2.8564,2.8618,2.8636,2.8728,2.8719,2.8778,2.889,2.893,2.8964,2.909,2.9079,2.9111,2.9169,2.9227,2.9241,2.9253,2.9296,2.9312,2.9121,2.9121,2.9121,0,2.8362,2.8461,2.8473,2.8545,2.8584,2.8574,2.8652,2.8689,2.8763,2.879,2.8766,2.8905,2.8942,2.9054,2.9085,2.9114,2.9136,2.9102,2.9238,2.925,2.9262,2.9303,2.932,2.9124,2.9124,2.9124,2.9123,0,2.8512,2.8581,2.8637,2.8708,2.8753,2.8828,2.8852,2.8897,2.8899,2.892,2.9015,2.9059,2.913,2.9158,2.916,2.927,2.9255,2.9235,2.9189,2.9281,2.932,2.9336,2.9129,2.9128,2.9127,2.9126,0,0,2.8643,2.8721,2.8741,2.8773,2.8835,2.8889,2.8965,2.9033,2.907,2.9123,2.9186,2.9281,2.9263,2.9302,2.931,2.9362,2.9457,2.9334,2.9336,2.9354,2.9579,2.9592,2.961,2.9451,2.9454,2.9456,2.9574,0,2.8756,2.8887,2.8901,2.9019,2.9083,2.9075,2.9141,2.9187,2.921,2.9268,2.9294,2.936,2.9331,2.9355,2.9405,2.9434,2.9502,2.9426,2.9509,2.9511,2.9492,2.9631,2.9645,2.9754,2.9589,2.9592,2.9594,0,2.8904,2.896,2.9084,2.9138,2.9165,2.9224,2.9288,2.9343,2.9396,2.9409,2.9454,2.9455,2.9534,2.9488,2.9595,2.9544,2.9579,2.9599,2.9603,2.9609,2.9556,2.9638,2.9789,2.9804,2.9618,2.9616,2.9615,0,2.8985,2.9092,2.9179,2.9207,2.9273,2.9314,2.9344,2.9393,2.9433,2.949,2.9516,2.9582,2.9617,2.9668,2.9687,2.9652,2.9794,2.975,2.9806,2.9806,2.9834,2.9831,2.9989,2.9861,2.9861,2.9861,2.986,0,2.9107,2.9183,2.9216,2.927,2.9354,2.9371,2.9454,2.9482,2.9526,2.9586,2.9585,2.9641,2.9664,2.9724,2.974,2.9826,2.9843,2.9855,2.9858,2.9853,2.9852,2.9874,2.9866,2.9865,2.9864,2.9863,2.9862,0,2.921,2.9235,2.933,2.9385,2.9401,2.946,2.9508,2.956,2.9583,2.9658,2.9677,2.9713,2.9783,2.9808,2.9894,2.9905,3.0004,3.0002,2.9986,2.9986,3.004,3.0034,3.0216,3.024,3.0099,3.01,3.0101,0,2.9285,2.9343,2.9404,2.9443,2.9474,2.9538,2.9579,2.9598,2.9641,2.9706,2.975,2.982,2.9877,2.999,3.0024,3.009,3.0088,3.0148,3.0098,3.0091,3.0086,3.0081,3.0087,3.0156,3.0157,3.0158,3.0159,0,2.9415,2.9425,2.9484,2.9548,2.9597,2.9648,2.9698,2.9731,2.9757,2.9806,2.9878,2.9922,3.0009,3.0079,3.0146,3.0177,3.0173,3.0175,3.0191,3.0186,3.0173,3.0179,3.0008,3.017,3.0169,3.0168,3.0168,3.0167,2.9504,2.9555,2.9606,2.9672,2.9712,2.9758,2.981,2.984,2.99,2.9972,2.998,3.0057,3.0109,3.0199,3.0234,3.0295,3.0278,3.0302,3.0308,3.0313,3.0315,3.0166,3.0308,3.0307,3.0307,3.0307,3.0307,0,2.9632,2.9665,2.9725,2.9795,2.9847,2.9839,2.9895,2.9938,3.0006,3.0055,3.0111,3.0193,3.0261,3.0301,3.0369,3.041,3.041,3.0427,3.0423,3.043,3.0327,3.0305,3.0426,3.0426,3.0426,3.0426,3.0426,3.0426,2.9704,2.9789,2.9806,2.9911,2.9944,3.0018,3.005,3.0094,3.0133,3.0225,3.028,3.0307,3.0352,3.0424,3.0486,3.0496,3.052,3.0538,3.0547,3.045,3.0437,3.0425,3.0405,3.0544,3.0544,3.0644,3.0645,3.0645]},{"header":{"parameterUnit":"m.s-1","parameterCategory":1,"la1":30.2991,"la2":30.254,"lo1":-89.0895,"lo2":-89.0444,"dy":0.0017,"dx":0.0017,"nx":28,"ny":28,"refTime":"2024-07-02T03:00:00:Z","depth":0,"parameterNumber":3,"parameterNumberName":"V-component_of_WINDS"},"data":[0,0,0,0,0,0,0,0,0,0,0,0,0,0,0,0,0,0,0,0,0,0,0,0,0,0,0,0,0,0,0,0,0,0,0,0,0,0,0,0,0,0,0,0,0,0,0,0,0,0,0,0,0,0,0,0,0,0,1.4614,1.4614,0,1.4663,1.4663,1.4664,1.466,1.466,1.4659,1.4658,1.4707,1.4709,1.4711,0,0,0,0,0,0,0,0,0,0,0,0,0,1.4515,1.4516,1.4613,1.4614,1.4615,1.4663,1.4663,1.4664,1.4661,1.466,1.4659,1.4658,1.4706,1.4709,1.4711,0,0,0,0,0,0,0,0,0,0,0,0,0,1.456,1.4517,1.4613,1.4619,1.462,1.4663,1.4663,1.4664,1.4661,1.466,1.4659,1.4658,1.4706,1.4708,1.4711,1.4751,0,0,1.472,1.4722,0,0,0,0,0,0,0,0,1.4557,1.4564,1.4617,1.4619,1.462,1.4654,1.4646,1.4693,1.4661,1.4645,1.4658,1.4657,1.469,1.4694,1.4706,1.4754,1.4756,1.4721,1.4722,1.4724,1.4725,0,0,0,0,0,0,0,1.4554,1.4561,1.4633,1.4618,1.462,1.4618,1.4623,1.4655,1.4673,1.4646,1.4646,1.4652,1.4691,1.4703,1.4707,1.4756,1.4721,1.4723,1.4725,1.4726,1.4839,1.484,0,0,0,0,0,0,1.455,1.4559,1.4631,1.4634,1.4585,1.4621,1.4627,1.4644,1.4673,1.4676,1.4653,1.4652,1.4699,1.4704,1.4709,1.4757,1.4724,1.4727,1.4728,1.4837,1.4839,1.484,0,0,0,0,0,0,1.4548,1.4557,1.4629,1.4597,1.4606,1.4624,1.4643,1.4646,1.4658,1.4678,1.4681,1.4663,1.4698,1.4705,1.4741,1.4759,1.4728,1.4731,1.4836,1.4838,1.484,1.4854,0,0,0,0,0,0,1.4545,1.4556,1.4572,1.4597,1.4608,1.4661,1.4645,1.4648,1.4664,1.4663,1.4688,1.4691,1.4698,1.4736,1.4744,1.4762,1.4733,1.4834,1.4837,1.4839,1.4852,1.4856,1.486,0,0,0,0,0,1.4542,1.4574,1.4573,1.4581,1.4628,1.4662,1.4668,1.4676,1.4665,1.4681,1.4693,1.469,1.4756,1.474,1.4748,1.4768,1.4833,1.4836,1.4839,1.4851,1.4856,1.486,0,0,0,0,0,0,1.455,1.4577,1.4576,1.4618,1.4638,1.4662,1.4682,1.4681,1.4704,1.4702,1.471,1.4716,1.4752,1.4764,1.4746,1.4808,1.4793,1.4798,1.4799,1.4804,1.4808,1.4804,1.4735,0,0,0,0,0,1.4556,1.4583,1.4605,1.4639,1.4649,1.4664,1.4679,1.4683,1.4704,1.4713,1.4728,1.4748,1.4773,1.4789,1.4813,1.4854,1.4859,1.4871,1.4875,1.4878,1.4882,1.4904,1.491,1.4849,1.4849,1.4849,0,0,1.457,1.4588,1.4604,1.4641,1.4657,1.4684,1.4671,1.4699,1.4719,1.4717,1.4752,1.4764,1.4786,1.4825,1.4843,1.4836,1.49,1.4882,1.4884,1.4886,1.4907,1.4913,1.4918,1.4851,1.4851,1.485,0,0,1.4609,1.4625,1.4656,1.4672,1.4697,1.4706,1.4713,1.4738,1.4745,1.4781,1.478,1.4802,1.4846,1.4862,1.4876,1.492,1.4917,1.4927,1.4947,1.4969,1.4973,1.4977,1.4993,1.4998,1.4931,1.4931,1.4931,0,1.4623,1.4663,1.4671,1.47,1.4716,1.4715,1.4746,1.4761,1.4792,1.4803,1.4795,1.4849,1.4864,1.4906,1.4917,1.4928,1.4936,1.4925,1.4972,1.4976,1.498,1.4995,1.5001,1.4932,1.4932,1.4932,1.4932,0,1.4679,1.4706,1.4728,1.4758,1.4777,1.4806,1.4818,1.4835,1.4838,1.4848,1.4883,1.4902,1.4929,1.494,1.4942,1.4982,1.4977,1.497,1.4955,1.4987,1.5001,1.5007,1.4934,1.4933,1.4933,1.4933,0,0,1.4724,1.4758,1.4766,1.478,1.4807,1.4828,1.4857,1.4885,1.4899,1.492,1.4944,1.4981,1.4975,1.499,1.4995,1.5013,1.5047,1.5005,1.5005,1.5011,1.5091,1.5096,1.5102,1.5045,1.5046,1.5047,1.5089,0,1.4765,1.4817,1.4825,1.487,1.4896,1.4896,1.4921,1.494,1.495,1.4972,1.4983,1.5009,1.4999,1.5008,1.5027,1.5039,1.5063,1.5036,1.5067,1.5068,1.5061,1.511,1.5115,1.5153,1.5095,1.5095,1.5096,0,1.482,1.4843,1.4891,1.4915,1.4926,1.4948,1.4974,1.4996,1.5017,1.5023,1.504,1.5042,1.5071,1.5055,1.5095,1.5077,1.509,1.5097,1.5099,1.5102,1.5084,1.5114,1.5166,1.5171,1.5105,1.5104,1.5104,0,1.4848,1.4891,1.4925,1.4937,1.4965,1.4981,1.4993,1.5013,1.5029,1.5051,1.5061,1.5087,1.51,1.5119,1.5128,1.5115,1.5167,1.5152,1.5172,1.5172,1.5183,1.5182,1.5237,1.5192,1.5192,1.5191,1.5191,0,1.4893,1.4922,1.4938,1.4959,1.4992,1.5,1.5032,1.5044,1.5062,1.5085,1.5086,1.5107,1.5117,1.5139,1.5146,1.5178,1.5184,1.5189,1.519,1.5189,1.5188,1.5197,1.5195,1.5193,1.5193,1.5192,1.5192,0,1.4929,1.4941,1.4979,1.5002,1.5009,1.5032,1.5051,1.5071,1.5081,1.511,1.5117,1.5132,1.5159,1.5169,1.5201,1.5206,1.5242,1.5242,1.5235,1.5236,1.5255,1.5253,1.5319,1.5328,1.5276,1.5277,1.5277,0,1.4957,1.498,1.5006,1.5021,1.5034,1.5059,1.5076,1.5085,1.5101,1.5127,1.5144,1.5171,1.5192,1.5235,1.5248,1.5272,1.5272,1.5293,1.5276,1.5273,1.5272,1.5271,1.5273,1.5297,1.5297,1.5297,1.5298,0,1.5005,1.501,1.5034,1.506,1.5079,1.51,1.512,1.5132,1.5144,1.5163,1.519,1.5207,1.524,1.5266,1.5292,1.5303,1.5303,1.5303,1.5309,1.5308,1.5303,1.5306,1.5244,1.5302,1.5301,1.5301,1.5301,1.5301,1.5038,1.5058,1.5079,1.5106,1.5122,1.514,1.516,1.5173,1.5196,1.5224,1.5228,1.5257,1.5277,1.5311,1.5323,1.5346,1.534,1.5349,1.5351,1.5353,1.5354,1.53,1.5351,1.535,1.535,1.535,1.535,0,1.5086,1.51,1.5124,1.5152,1.5172,1.517,1.5192,1.5209,1.5235,1.5254,1.5276,1.5307,1.5332,1.5348,1.5373,1.5388,1.5388,1.5394,1.5393,1.5396,1.5358,1.535,1.5394,1.5393,1.5393,1.5393,1.5393,1.5393,1.5113,1.5147,1.5154,1.5195,1.5209,1.5238,1.525,1.5267,1.5282,1.5317,1.5339,1.5349,1.5366,1.5392,1.5415,1.5419,1.5428,1.5435,1.5438,1.5403,1.5398,1.5394,1.5387,1.5437,1.5437,1.5473,1.5474,1.5474]}]]